Hourly Weather Rudnik

Today, 15 April, Thursday

Time Temperature Precipitation Wind Pressure Humidity
00:00 -1°C° 0.5 mm 4 mps 748 mmHg 99%
01:00 -1°C° 0.5 mm 4 mps 747 mmHg 99%
02:00 0°C° 0.5 mm 3 mps 747 mmHg 99%
03:00 0°C° 0.4 mm 3 mps 747 mmHg 99%
04:00 0°C° 0.4 mm 3 mps 747 mmHg 99%
05:00 +1°C° 0.4 mm 2 mps 747 mmHg 99%
06:00 +1°C° 0.3 mm 2 mps 747 mmHg 99%
07:00 +1°C° 0.3 mm 2 mps 747 mmHg 99%
08:00 +2°C° 0.3 mm 1 mps 747 mmHg 99%
09:00 +3°C° 0.1 mm 1 mps 747 mmHg 99%
10:00 +3°C° 0.1 mm 1 mps 747 mmHg 99%
11:00 +3°C° 0.1 mm 1 mps 747 mmHg 99%
12:00 +3°C° 0 mm 1 mps 747 mmHg 99%
13:00 +4°C° 0 mm 1 mps 747 mmHg 99%
14:00 +4°C° 0 mm 1 mps 748 mmHg 99%
15:00 +4°C° 0 mm 1 mps 748 mmHg 99%
16:00 +4°C° 0 mm 1 mps 748 mmHg 99%
17:00 +4°C° 0 mm 1 mps 748 mmHg 98%
18:00 +4°C° 0 mm 1 mps 748 mmHg 99%
19:00 +4°C° 0 mm 1 mps 748 mmHg 99%
20:00 +4°C° 0 mm 1 mps 748 mmHg 99%
21:00 +3°C° 0.1 mm 2 mps 748 mmHg 99%
22:00 +3°C° 0.1 mm 2 mps 747 mmHg 99%
23:00 +3°C° 0.1 mm 2 mps 747 mmHg 99%

Tomorrow, 16 April, Friday

Time Temperature Precipitation Wind Pressure Humidity
00:00 +2°C° 0.4 mm 3 mps 747 mmHg 99%
01:00 +2°C° 0.4 mm 3 mps 747 mmHg 99%
02:00 +2°C° 0.4 mm 3 mps 746 mmHg 99%
03:00 +2°C° 0.3 mm 3 mps 746 mmHg 99%
04:00 +2°C° 0.3 mm 3 mps 746 mmHg 99%
05:00 +2°C° 0.3 mm 3 mps 746 mmHg 99%
06:00 +2°C° 1.1 mm 3 mps 746 mmHg 99%
07:00 +2°C° 1.1 mm 3 mps 746 mmHg 98%
08:00 +2°C° 1.1 mm 3 mps 746 mmHg 98%
09:00 +2°C° 0.2 mm 3 mps 746 mmHg 98%
10:00 +3°C° 0.2 mm 3 mps 746 mmHg 98%
11:00 +3°C° 0.2 mm 3 mps 746 mmHg 98%
12:00 +4°C° 0.1 mm 3 mps 746 mmHg 97%
13:00 +5°C° 0.1 mm 3 mps 746 mmHg 96%
14:00 +5°C° 0.1 mm 3 mps 746 mmHg 95%
15:00 +7°C° 0.4 mm 3 mps 746 mmHg 95%
16:00 +7°C° 0.4 mm 3 mps 746 mmHg 95%
17:00 +8°C° 0.4 mm 3 mps 746 mmHg 94%
18:00 +7°C° 0.4 mm 3 mps 747 mmHg 95%
19:00 +7°C° 0.4 mm 3 mps 747 mmHg 96%
20:00 +7°C° 0.4 mm 3 mps 747 mmHg 97%
21:00 +7°C° 0.1 mm 3 mps 747 mmHg 97%
22:00 +7°C° 0.1 mm 3 mps 747 mmHg 98%
23:00 +6°C° 0.1 mm 4 mps 747 mmHg 98%

Day after tomorrow, 17 April, Saturday

Time Temperature Precipitation Wind Pressure Humidity
00:00 +5°C° 0.1 mm 3 mps 747 mmHg 98%
01:00 +5°C° 0.1 mm 3 mps 747 mmHg 98%
02:00 +4°C° 0.1 mm 3 mps 747 mmHg 97%
03:00 +5°C° 0.2 mm 3 mps 747 mmHg 97%
04:00 +5°C° 0.2 mm 3 mps 747 mmHg 96%
05:00 +5°C° 0.2 mm 3 mps 748 mmHg 96%
06:00 +5°C° 0 mm 4 mps 748 mmHg 94%
07:00 +5°C° 0 mm 4 mps 748 mmHg 93%
08:00 +5°C° 0 mm 4 mps 749 mmHg 91%
09:00 +5°C° 0 mm 4 mps 749 mmHg 89%
10:00 +6°C° 0 mm 4 mps 749 mmHg 87%
11:00 +6°C° 0 mm 4 mps 749 mmHg 85%
12:00 +7°C° 0 mm 5 mps 749 mmHg 82%
13:00 +7°C° 0 mm 5 mps 750 mmHg 79%
14:00 +8°C° 0 mm 5 mps 750 mmHg 76%
15:00 +7°C° 0 mm 5 mps 750 mmHg 78%
16:00 +7°C° 0 mm 5 mps 750 mmHg 80%
17:00 +6°C° 0 mm 4 mps 750 mmHg 83%
18:00 +6°C° 0 mm 4 mps 750 mmHg 84%
19:00 +5°C° 0 mm 3 mps 750 mmHg 85%
20:00 +5°C° 0 mm 3 mps 751 mmHg 87%
21:00 +5°C° 0 mm 2 mps 751 mmHg 88%
22:00 +5°C° 0 mm 2 mps 751 mmHg 90%
23:00 +5°C° 0 mm 2 mps 751 mmHg 91%

18 April, Sunday

Time Temperature Precipitation Wind Pressure Humidity
00:00 +4°C° 0 mm 2 mps 751 mmHg 92%
01:00 +4°C° 0 mm 2 mps 751 mmHg 92%
02:00 +4°C° 0 mm 2 mps 751 mmHg 93%
03:00 +4°C° 0 mm 2 mps 751 mmHg 93%
04:00 +4°C° 0 mm 2 mps 751 mmHg 93%
05:00 +4°C° 0 mm 2 mps 751 mmHg 93%
06:00 +5°C° 0 mm 2 mps 751 mmHg 91%
07:00 +4°C° 0 mm 3 mps 751 mmHg 90%
08:00 +4°C° 0 mm 3 mps 751 mmHg 88%
09:00 +7°C° 0 mm 3 mps 751 mmHg 81%
10:00 +8°C° 0 mm 3 mps 751 mmHg 73%
11:00 +10°C° 0 mm 3 mps 751 mmHg 66%
12:00 +11°C° 0 mm 3 mps 751 mmHg 61%
13:00 +12°C° 0 mm 3 mps 751 mmHg 55%
14:00 +13°C° 0 mm 3 mps 750 mmHg 49%
15:00 +13°C° 0 mm 3 mps 750 mmHg 54%
16:00 +12°C° 0 mm 3 mps 750 mmHg 59%
17:00 +11°C° 0 mm 3 mps 750 mmHg 64%
18:00 +11°C° 0 mm 3 mps 750 mmHg 67%
19:00 +10°C° 0 mm 3 mps 751 mmHg 70%
20:00 +9°C° 0 mm 3 mps 751 mmHg 73%
21:00 +9°C° 0 mm 3 mps 751 mmHg 73%
22:00 +8°C° 0 mm 3 mps 750 mmHg 74%
23:00 +8°C° 0 mm 3 mps 750 mmHg 75%

19 April, Monday

Time Temperature Precipitation Wind Pressure Humidity
00:00 +8°C° 0 mm 3 mps 750 mmHg 74%
01:00 +8°C° 0 mm 3 mps 750 mmHg 73%
02:00 +8°C° 0 mm 3 mps 750 mmHg 73%
03:00 +8°C° 0 mm 3 mps 749 mmHg 74%
04:00 +7°C° 0 mm 3 mps 749 mmHg 76%
05:00 +7°C° 0 mm 3 mps 749 mmHg 78%
06:00 +8°C° 0.1 mm 3 mps 749 mmHg 79%
07:00 +8°C° 0.1 mm 3 mps 749 mmHg 80%
08:00 +7°C° 0.1 mm 4 mps 748 mmHg 81%
09:00 +7°C° 0.1 mm 4 mps 748 mmHg 82%
10:00 +8°C° 0.1 mm 5 mps 748 mmHg 82%
11:00 +8°C° 0.1 mm 6 mps 748 mmHg 83%
12:00 +8°C° 0.1 mm 5 mps 748 mmHg 84%
13:00 +8°C° 0.1 mm 5 mps 747 mmHg 84%
14:00 +8°C° 0.1 mm 4 mps 747 mmHg 84%
15:00 +8°C° 0.2 mm 4 mps 746 mmHg 86%
16:00 +8°C° 0.2 mm 4 mps 746 mmHg 88%
17:00 +8°C° 0.2 mm 4 mps 746 mmHg 89%
18:00 +7°C° 0.5 mm 4 mps 745 mmHg 91%
19:00 +7°C° 0.5 mm 4 mps 745 mmHg 93%
20:00 +7°C° 0.5 mm 4 mps 744 mmHg 95%
21:00 +7°C° 0.2 mm 4 mps 744 mmHg 95%
22:00 +7°C° 0.2 mm 4 mps 744 mmHg 94%
23:00 +7°C° 0.2 mm 4 mps 743 mmHg 94%

20 April, Tuesday

Time Temperature Precipitation Wind Pressure Humidity
00:00 +7°C° 0.3 mm 4 mps 743 mmHg 94%
01:00 +7°C° 0.3 mm 4 mps 742 mmHg 95%
02:00 +7°C° 0.3 mm 4 mps 742 mmHg 96%
03:00 +7°C° 0.3 mm 4 mps 741 mmHg 96%
04:00 +7°C° 0.3 mm 4 mps 741 mmHg 96%
05:00 +7°C° 0.3 mm 4 mps 740 mmHg 96%
06:00 +7°C° 0.1 mm 4 mps 740 mmHg 96%
07:00 +7°C° 0.1 mm 5 mps 739 mmHg 96%
08:00 +7°C° 0.1 mm 5 mps 739 mmHg 95%
09:00 +7°C° 0.1 mm 5 mps 738 mmHg 94%
10:00 +7°C° 0.1 mm 5 mps 738 mmHg 93%
11:00 +7°C° 0.1 mm 5 mps 738 mmHg 92%
12:00 +7°C° 0.4 mm 5 mps 737 mmHg 91%
13:00 +7°C° 0.4 mm 5 mps 737 mmHg 91%
14:00 +6°C° 0.4 mm 5 mps 737 mmHg 91%
15:00 +6°C° 1 mm 5 mps 737 mmHg 92%
16:00 +5°C° 1 mm 5 mps 737 mmHg 92%
17:00 +5°C° 1 mm 5 mps 736 mmHg 92%
18:00 +5°C° 0.5 mm 5 mps 736 mmHg 93%
19:00 +3°C° 0.5 mm 5 mps 736 mmHg 94%
20:00 +4°C° 0.5 mm 4 mps 736 mmHg 94%
21:00 +4°C° 0.3 mm 4 mps 736 mmHg 95%
22:00 +3°C° 0.3 mm 4 mps 736 mmHg 95%
23:00 +3°C° 0.3 mm 4 mps 736 mmHg 96%
Show more